Погода в Харькове

Погода в Харькове : погода сейчас, прогноз погоды и архив. Всё, что Вы хотите узнать о погоде в Харькове!

Хотите узнать прогноз погоды в Харькове? Тогда Вам сюда: Погода в Харькове

Поиск расширенной информации на нашем сайте:

Полезная информация: такси оптимальное Харьков телефон

Другие новости

Новости СМИ2

Главная страница сайта

Новости сайта

03.07.2017

Напоминаем, что на нашем специализированном сайте Метеоцентр.Азия вы можете получить высокодетализированные автоматические прогнозы погоды по пунктам России, СНГ и мира в авиационном формате (включающие направление и скорость ветра, видимость, явления погоды, количество и форму облачности, нижнюю и верхнюю границу облачности).

Рекомендуем: Безопасность vip персон

Погода в Харькове - сегодня

Время (UTC), дата Ветер
(°,м/с) 
Видим.   Явления Облачность Т
(°С)
Тd
(°С)
f(%) Тe
(°С)
Pmin
(гПа)
dP
(гПа)
Po
(мм)
O2
(г/м3)
Тmin Tmax R s Состояние
почвы
12 17.09.17 120 (ЮВ) 10 км    3/0 верхняя 
[Ci fib]
+28.2 +7.7 27 +28  1018.5  -2.1  751  273           
15 17.09.17 110 (В) 10 км    ясно 
+26.2 +7.4 30 +26  1017.1  -1.5  750  274           
18 17.09.17 090 (В) 10 км    ясно 
+19.4 +7.7 47 +20  1016.7  -0.8  749  280           
21 17.09.17 100 (В) 10 км    ясно 
+18 +8.3 53 +19  1015.5  -1.3  748  281           
00 18.09.17 110 (В) 10 км    ясно 
+16.8 +9.1 60 +17  1014.3  -1.2  747  282           
03 18.09.17 110 (В) 10 км    3/0 средняя 
[Ac trans]
+15.1 +9.9 71 +16  1013.6  -0.8  746  283           
06 18.09.17 140 (ЮВ) 10 км    6/0 верхняя 
[Ci fib]
+21.2 +11.5 54 +25  1012.8  -0.4  746  277  +14.5  +2.6       
09 18.09.17 200 (Ю) 10 км    5/0 верхняя 
[Ci fib]
+28.2 +11.6 36 +32  1011.1  -1.3  745  270           
12 18.09.17 200 (Ю) 10 км    ясно 
+33.1 +9.6 24 +34  1009.2  -1.6  744  266           
15 18.09.17 260 (З) 10 км    ясно 
+30.3 +10.7 30 +33  1008.8  -0.5  744  268           
18 18.09.17 310 (СЗ) 10 км    5/0 средняя, верхняя 
[Ac trans|Ci fib]
+24.2 +10.6 42 +26  1011.1  1.9  745  274    +33.1       
21 18.09.17 310 (СЗ) 10 км    3/0 средняя 
[Ac trans]
+20 +8.6 48 +20  1013.1  1.7  746  279           
00 19.09.17 310 (СЗ) 10 км    ясно 
+15.8 +7.9 59 +16  1015.1  1.7  748  283           
03 19.09.17 290 (З) 10 км    3/0 верхняя 
[Ci fib]
+13.3 +7.4 67 +14  1016.8  1.5  749  286           
06 19.09.17 320 (СЗ) 10 км    6/0 верхняя 
[Ci fib]
+16.5 +6.3 51 +17  1017.9  1.3  750  284  +12.7         
09 19.09.17 330 (СЗ) 10 км    6/0 верхняя 
[Ci fib]
+21.1 +5.7 37 +21  1018.1  0.4  750  280           
12 19.09.17 330 (СЗ) 10 км    4/0 верхняя 
[Ci fib]
+22.4 +4.6 31 +22  1017.8  -0.2  750  279           
15 19.09.17 360 (С) 10 км    3/0 верхняя 
[Ci fib]
+21.8 +4.8 33 +22  1017.5  -0.3  750  279           
18 19.09.17 010 (С) 10 км    ясно 
+17 +5.1 45 +17  1018.9  1.1  750  284    +23.2       
21 19.09.17 030 (СВ) 10 км    ясно 
+16.3 +4.7 46 +16  1018.6  -0.4  750  285           
00 20.09.17 030 (СВ) 10 км    ясно 
+14.2 +4.5 52 +15  1019.2  0.5  751  287           
03 20.09.17 040 (СВ) 10 км    ясно 
+13.3 +4.6 56 +13  1019  -0.3  750  288           
06 20.09.17 080 (В) 10 км    4/0 верхняя 
[Ci fib]
+16.8 +5.4 47 +16  1019  0.3  751  284  +12.5  +2.2       
09 20.09.17 070 (В) 10 км    3/0 верхняя 
[Cc]
+23.9 +4.7 29 +24  1018  -0.6  750  277           
12 20.09.17 070 (В) 10 км    3/0 верхняя 
[Ci fib]
+26.3 +5.6 27 +26  1016.3  -1.5  749  274           
Время (UTC), дата Ветер
(°,м/с) 
Видим.   Явления Облачность Т
(°С)
Тd
(°С)
f(%) Тe
(°С)
Pmin
(гПа)
dP
(гПа)
Po
(мм)
O2
(г/м3)
Тmin Tmax R s Состояние
почвы

Для получения пояснительной информации подведите курсор к названию столбца.

ПОГОДА в Харькове - архив

Всё, что Вы хотите узнать о погоде в Харькове - удобно и подробно!

Выберите нужную дату (начиная с 1 января 2015* года) и нажмите кнопку "Найти".
Будут отображены архивные сводки погоды по пункту Харьков, начиная с указанной даты.


Отображать данные в формате CSV (для использования в таблицах Excel)


Внимание! Наш архив погоды предназначен исключительно для личного некоммерческого использования в познавательных целях. Если Вам необходимы официальные справки о состоянии погоды (для производственных, юридических, коммерческих и т.п. целей), обращайтесь в органы Росгидромета.

*Примечание: данная дата относится к архиву по метеостанциям СССР (Россия, СНГ, Балтия).
Архив по метеостанциям Зарубежной Европы и Азии (кроме Китая) хранится 10 дней, по другим регионам земного шара (Китай, Африка, Америка, Австралия, Океания) - 1 день.

Харьков - район местоположения метеостанции


Название, широта, долгота, высота метеостанции:
Харьков 49.1°ш. 36.1°д. 155 м над ур. моря [Украина]

Дополнительная информация

В oтличие oт бoльшинства пoгoдных сайтoв мы публикуем пoдрoбную метеoинфoрмацию в детальнoм прoфессиoнальнoм фoрмате.

Характеристики температуры и влажнoсти вoздуха измеряются на высoте 2 м в тени вдали oт зданий и деревьев.
Скoрoсть ветра измеряется на высoте 10 м (на урoвне рoста челoвека скoрoсть ветра ниже в 1.5-2 раза). Если метеoстанция нахoдится в гoрoде или в лесу, тo скoрoсть ветра занижена на 2-4 м/с пo сравнению с oткрытым местoм. Скoрoсть ветра над акватoриями крупных рек и oзёр, а также на вершинах хoлмoв на 2-5 м/с выше, чем в oбычных услoвиях.
Атмoсфернoе давление в разных тoчках местнoсти мoжет значительнo oтличаться oт давления на метеoстанции, в зависимoсти oт услoвий рельефа (при пoдъёме на 10 м давление пoнижается примернo на 1 мм рт.ст.).